Location: Newark
(45.5167°N, 11.1667°E)
Time: 05:49:19
(UTC+00:00)

A-11 Canister half - All Passes

Search period start: 16 December 2019 00:00
Search period end: 26 December 2019 00:00
Orbit: 1526 x 1683 km, 47.3° (Epoch: 14 December)

Date Brightness Start Highest point End Pass type
(mag) Time Alt. Az. Time Alt. Az. Time Alt. Az.
16 Dec - 00:57:05 10° SE 01:00:23 12° ESE 01:03:43 10° E visible
16 Dec - 02:54:08 10° SSW 03:03:24 44° SE 03:12:48 10° ENE visible
16 Dec - 04:57:48 10° WSW 05:07:59 86° SSE 05:18:11 10° ENE visible
16 Dec - 07:03:19 10° W 07:13:34 82° N 07:23:41 10° E daylight
16 Dec - 09:08:45 10° WNW 09:18:48 68° SSW 09:28:36 10° SE daylight
16 Dec - 11:14:47 10° WNW 11:22:37 27° SW 11:30:19 10° S daylight
17 Dec - 00:36:36 10° SE 00:38:52 11° ESE 00:41:07 10° ESE visible
17 Dec - 02:32:37 10° SSW 02:41:48 43° SE 02:51:05 10° ENE visible
17 Dec - 04:36:10 10° WSW 04:46:19 85° SSE 04:56:31 10° ENE visible
17 Dec - 06:41:38 10° W 06:51:52 82° N 07:02:01 10° E daylight
17 Dec - 08:47:04 10° WNW 08:57:09 70° SSW 09:07:01 10° SE daylight
17 Dec - 10:53:00 10° WNW 11:01:03 28° SW 11:08:57 10° S daylight
18 Dec - 02:11:08 10° SSW 02:20:12 41° SE 02:29:22 10° ENE visible
18 Dec - 04:14:30 10° WSW 04:24:38 83° SSE 04:34:51 10° ENE visible
18 Dec - 06:19:56 10° W 06:30:11 81° N 06:40:20 10° E daylight
18 Dec - 08:25:23 10° WNW 08:35:30 72° SSW 08:45:25 10° SE daylight
18 Dec - 10:31:14 10° WNW 10:39:29 30° SW 10:47:34 10° S daylight
19 Dec - 01:49:40 10° SSW 01:58:35 39° SE 02:07:39 10° ENE visible
19 Dec - 03:52:51 10° WSW 04:02:57 82° SSE 04:13:10 10° ENE visible
19 Dec - 05:58:15 10° W 06:08:29 81° N 06:18:39 10° E visible
19 Dec - 08:03:43 10° WNW 08:13:51 74° SSW 08:23:48 10° SE daylight
19 Dec - 10:09:28 10° WNW 10:17:54 32° SW 10:26:11 10° S daylight
20 Dec - 01:28:12 10° SSW 01:36:59 37° SE 01:45:56 10° ENE visible
20 Dec - 03:31:14 10° WSW 03:41:18 80° SSE 03:51:29 10° ENE visible
20 Dec - 05:36:34 10° W 05:46:47 81° N 05:56:59 10° E visible
20 Dec - 07:42:01 10° WNW 07:52:11 76° SSW 08:02:11 10° ESE daylight
20 Dec - 09:47:43 10° WNW 09:56:19 33° SW 10:04:46 10° SSE daylight
21 Dec - 01:06:45 10° SSW 01:15:24 35° SE 01:24:12 10° ENE visible
21 Dec - 03:09:36 10° WSW 03:19:38 78° SSE 03:29:49 10° ENE visible
21 Dec - 05:14:53 10° W 05:25:05 81° N 05:35:18 10° E visible
21 Dec - 07:20:21 10° WNW 07:30:32 78° SSW 07:40:34 10° ESE daylight
21 Dec - 09:25:59 10° WNW 09:34:44 35° SW 09:43:21 10° SSE daylight
22 Dec - 00:45:20 10° SSW 00:53:49 34° SE 01:02:28 10° ENE visible
22 Dec - 02:47:58 10° WSW 02:57:57 77° SSE 03:08:08 10° ENE visible
22 Dec - 04:53:12 10° W 05:03:23 81° N 05:13:36 10° E visible
22 Dec - 06:58:41 10° WNW 07:08:52 80° SSW 07:18:56 10° ESE daylight
22 Dec - 09:04:15 10° WNW 09:13:09 37° SW 09:21:54 10° SSE daylight
23 Dec - 00:23:54 10° S 00:32:14 32° SE 00:40:42 10° ENE visible
23 Dec - 02:26:21 10° WSW 02:36:18 75° SSE 02:46:27 10° ENE visible
23 Dec - 04:31:31 10° W 04:41:41 81° N 04:51:55 10° E visible
23 Dec - 06:36:59 10° WNW 06:47:12 81° SSW 06:57:18 10° ESE daylight
23 Dec - 08:42:32 10° WNW 08:51:33 38° SW 09:00:26 10° SSE daylight
24 Dec - 00:02:30 10° S 00:10:39 30° SE 00:18:57 10° ENE visible
24 Dec - 02:04:44 10° SW 02:14:39 73° SSE 02:24:46 10° ENE visible
24 Dec - 04:09:50 10° W 04:19:59 81° N 04:30:14 10° E visible
24 Dec - 06:15:19 10° WNW 06:25:32 83° SSW 06:35:39 10° ESE visible
24 Dec - 08:20:48 10° WNW 08:29:57 40° SW 08:38:58 10° SSE daylight
24 Dec - 23:41:07 10° S 23:49:04 29° SE 23:57:12 10° ENE visible
25 Dec - 01:43:08 10° SW 01:53:00 71° SSE 02:03:06 10° ENE visible
25 Dec - 03:48:09 10° W 03:58:18 82° N 04:08:32 10° E visible
25 Dec - 05:53:39 10° WNW 06:03:51 84° SSW 06:14:00 10° ESE visible
25 Dec - 07:59:05 10° WNW 08:08:21 42° SW 08:17:29 10° SSE daylight
25 Dec - 10:09:30 10° WSW 10:11:15 11° WSW 10:13:00 10° SW daylight
25 Dec - 23:19:45 10° S 23:27:30 27° SE 23:35:24 10° ENE visible
